Home   Weather   Liberec   Past weeks

Flag for Czech Republic Past Weather in Liberec, Czech Republic — Yesterday and Last 2 Weeks

Now
41 °F

Drizzle. Overcast.


Feels Like: 39 °F
Forecast: 35 / 41 °F
Wind: 3 mph from Northwest

Location: Liberec

Current Time: Dec 9, 2016 at 4:53:35 pm

Latest Report: Dec 9, 2016 at 4:00 pm


Visibility: 3 mi

Pressure: 30.34 "Hg

Humidity: 97%

Dew Point: 40 °F

Location of LiberecLocation

Past Weather in Liberec — Graph

°F

Liberec Temperature Yesterday

Maximum temperature yesterday: 38 °F (at 6:00 pm)
Minimum temperature yesterday: 36 °F (at 11:00 am)
Average temperature yesterday: 37 °F

High & Low Weather Summary for the Past Weeks

 TemperatureHumidityPressure
High44 °F (Nov 24, 3:00 pm)99% (Nov 25, 9:00 pm)30.65 "Hg (Nov 25, 9:00 pm)
Low17 °F (Dec 4, 6:00 am)41% (Nov 30, 12:00 pm)29.75 "Hg (Dec 2, 4:00 am)
Average31 °F85%30.29 "Hg
* Reported Nov 24 3:00 pm — Dec 9 3:00 pm, Liberec, Weather by CustomWeather, © 2016

Note: Actual official high and low records may vary slightly from our data, if they occured in-between our weather recording intervals... More about our weather records

Advertising

Liberec Weather History for the Previous 24 Hours

Scroll right to see more
 ConditionsComfort  
Time TempWeatherWind HumidityBarometerVisibility
3:00 pm
Fri, Dec 9
39 °FOvercast.1 mph95%30.33 "Hg4 mi
2:00 pm38 °FDrizzle. Low clouds.2 mph95%30.33 "Hg1 mi
1:00 pm37 °FLow clouds.2 mph92%30.33 "Hg5 mi
12:00 pm38 °FLow clouds.2 mph86%30.34 "Hg6 mi
11:00 am38 °FOvercast.2 mph85%30.34 "Hg6 mi
10:00 am37 °FOvercast.1 mph83%30.36 "Hg8 mi
9:00 am37 °FOvercast.2 mph82%30.34 "Hg9 mi
8:00 am36 °FOvercast.2 mph77%30.34 "Hg8 mi
7:00 am36 °FOvercast.3 mph73%30.33 "Hg6 mi
6:00 am35 °FChilly.2 mph79%30.33 "Hg9 mi
5:00 am32 °FChilly.2 mph81%30.37 "Hg9 mi
4:00 am31 °FChilly.1 mph82%30.38 "Hg8 mi
3:00 am35 °FChilly.2 mph77%30.38 "Hg9 mi
2:00 am35 °FChilly.5 mph73%30.34 "Hg9 mi
1:00 am36 °FChilly.2 mph70%30.38 "Hg9 mi
12:00 am37 °FChilly.2 mph68%30.37 "Hg9 mi
11:00 pm
Thu, Dec 8
37 °FChilly.3 mph67%30.36 "Hg9 mi
10:00 pm38 °FChilly.3 mph68%30.38 "Hg9 mi
9:00 pm38 °FOvercast.3 mph67%30.38 "Hg8 mi
8:00 pm38 °FPassing clouds.3 mph66%30.39 "Hg8 mi
7:00 pm38 °FPassing clouds.3 mph67%30.41 "Hg9 mi
6:00 pm38 °FChilly.3 mph66%30.40 "Hg9 mi
5:00 pm37 °FChilly.2 mph71%30.41 "Hg7 mi
4:00 pm36 °FPassing clouds.2 mph70%30.42 "Hg9 mi
Weather by CustomWeather, © 2016

See weather overviewHow to use our weather pages